sat.trackr.live / text

‹ back to catalog

STARLINK-34931

NORAD 65398 · 2025-191V

PAYLOAD ACTIVE UNKNOWN

§ Identity

Operator
Country
US
Launch date
2025-08-30
Launch site
AFWTR
Launch vehicle
Mass (kg)
RCS (m²)

Purposes: comms

External: N2YO · Heavens-Above · Gunter

§ Orbital elements

Epoch: 2026-05-25T02:20:13.326144Z

Period
95.64 min
Inclination
97.4522°
Eccentricity
0.0002392
Mean motion
15.05656906 rev/d
Perigee alt
547.8 km
Apogee alt
551.1 km
Semi-major
6,927.6 km
B*
2.7378e-4
RAAN
16.4194°
Arg perigee
84.8034°
Mean anomaly
275.3466°
Rev number
4,176

§ Raw data

STARLINK-349311 65398U 25191V   26145.09737646  .00003895  00000+0  27378-3 0  99932 65398  97.4522  16.4194 0002392  84.8034 275.3466 15.05656906 41764

JSON: /api/v1/satellites/65398 · /tle

For live sub-satellite position, see the globe view (requires WebGL).

§ Visibility from observer

Set your observer location to see the next 7 days of passes ≥ 10°. The values pass through the URL so the page stays shareable.

No JS? Fill the form by hand. The geolocation button needs JavaScript.